PAL223 RPLL-YPPH

Flight info

Callsign PAL223
Flight time N/A
Altitude 33000
Route VERDE2R VERDE A461 ZAM/N0469F340 G578 GORAI DCT LADOP DCT NIVEK DCT 0616S11815E/N0465F350 DCT KETUT DCT 1200S11813E/N0465F360 15S118E 1710S11745E 2110S11718E 2500S11652E DCT IGASO L514 AVPAL Q38 JULIM
Aircraft A21N/M-SDE3FGHIRWY/LB1

Departure

Time 2026-05-05 16:23
Airport Ninoy Aquino International Airport (RPLL)

Arrival

Time N/A
Airport Perth International Airport (YPPH)
Time Latitude Longitude Altitude Speed Heading
2026-05-05 15:59 14.50376 121.00388 84 ft 0 kts 50°
2026-05-05 16:11 14.50374 121.00384 84 ft 2 kts 50°
2026-05-05 16:12 14.50364 121.00372 84 ft 2 kts 50°
2026-05-05 16:12 14.50350 121.00344 84 ft 2 kts 82°
2026-05-05 16:13 14.50363 121.00302 84 ft 2 kts 136°
2026-05-05 16:13 14.50375 121.00293 84 ft 2 kts 155°
2026-05-05 16:13 14.50390 121.00288 84 ft 2 kts 173°
2026-05-05 16:14 14.50405 121.00288 84 ft 0 kts 185°
2026-05-05 16:18 14.50402 121.00288 84 ft 1 kts 185°
2026-05-05 16:18 14.50386 121.00286 84 ft 3 kts 185°
2026-05-05 16:18 14.50302 121.00279 84 ft 6 kts 184°
2026-05-05 16:19 14.50256 121.00280 84 ft 6 kts 162°
2026-05-05 16:19 14.50213 121.00304 83 ft 7 kts 149°
2026-05-05 16:19 14.50122 121.00327 84 ft 7 kts 219°
2026-05-05 16:20 14.50064 121.00229 84 ft 8 kts 240°
2026-05-05 16:20 14.50000 121.00114 84 ft 10 kts 240°
2026-05-05 16:21 14.49930 120.99987 84 ft 10 kts 240°
2026-05-05 16:22 14.49813 121.00001 83 ft 6 kts 150°
2026-05-05 16:22 14.49838 121.00111 84 ft 18 kts 60°
2026-05-05 16:23 14.50431 121.01177 84 ft 144 kts 61°
2026-05-05 16:23 14.50999 121.02214 183 ft 179 kts 63°
2026-05-05 16:23 14.52293 121.04414 1222 ft 185 kts 61°
2026-05-05 16:24 14.52963 121.05571 1801 ft 188 kts 62°
2026-05-05 16:24 14.53603 121.06720 2463 ft 183 kts 64°
2026-05-05 16:24 14.54796 121.08972 3138 ft 181 kts 64°
2026-05-05 16:25 14.55425 121.10141 3330 ft 190 kts 64°
2026-05-05 16:25 14.56660 121.12706 3739 ft 208 kts 84°
2026-05-05 16:25 14.56454 121.14155 3936 ft 211 kts 122°
2026-05-05 16:26 14.53844 121.15302 4321 ft 231 kts 187°
2026-05-05 16:26 14.50460 121.14862 4876 ft 260 kts 187°
2026-05-05 16:27 14.48655 121.14639 5339 ft 266 kts 187°
2026-05-05 16:27 14.46815 121.14417 5947 ft 267 kts 187°
2026-05-05 16:27 14.44984 121.14201 6532 ft 269 kts 187°
2026-05-05 16:27 14.43120 121.13989 7075 ft 272 kts 188°
2026-05-05 16:28 14.41258 121.13771 7592 ft 275 kts 188°
2026-05-05 16:28 14.39337 121.13546 8135 ft 278 kts 188°
2026-05-05 16:28 14.37422 121.13322 8643 ft 281 kts 189°
2026-05-05 16:28 14.35474 121.13094 9134 ft 285 kts 189°
2026-05-05 16:29 14.33510 121.12864 9626 ft 288 kts 189°
2026-05-05 16:29 14.31497 121.12627 10108 ft 292 kts 189°
2026-05-05 16:29 14.29458 121.12388 10400 ft 302 kts 189°
2026-05-05 16:29 14.27343 121.12138 10626 ft 315 kts 189°
2026-05-05 16:30 14.25135 121.11878 10848 ft 327 kts 189°
2026-05-05 16:30 14.22833 121.11608 11066 ft 339 kts 189°
2026-05-05 16:30 14.20458 121.11330 11279 ft 351 kts 189°
2026-05-05 16:30 14.18015 121.11046 11609 ft 358 kts 188°
2026-05-05 16:31 14.15553 121.10761 12062 ft 361 kts 188°
2026-05-05 16:31 14.13063 121.10472 12528 ft 363 kts 188°
2026-05-05 16:31 14.10533 121.10177 12985 ft 366 kts 188°
2026-05-05 16:31 14.07999 121.09882 13397 ft 370 kts 188°
2026-05-05 16:32 14.05443 121.09584 13828 ft 373 kts 188°
2026-05-05 16:32 14.02866 121.09283 14261 ft 376 kts 188°
2026-05-05 16:32 14.00251 121.08979 14710 ft 378 kts 188°
2026-05-05 16:32 13.97663 121.08678 15172 ft 379 kts 188°
2026-05-05 16:33 13.95042 121.08373 15596 ft 381 kts 188°
2026-05-05 16:33 13.92411 121.08067 16002 ft 384 kts 187°
2026-05-05 16:33 13.89751 121.07758 16409 ft 387 kts 187°
2026-05-05 16:33 13.87073 121.07446 16808 ft 389 kts 187°
2026-05-05 16:34 13.84397 121.07135 17199 ft 391 kts 187°
2026-05-05 16:34 13.81677 121.06818 17589 ft 394 kts 187°
2026-05-05 16:34 13.78987 121.06506 17968 ft 396 kts 187°
2026-05-05 16:34 13.76255 121.06188 18344 ft 398 kts 187°
2026-05-05 16:35 13.73491 121.05867 18717 ft 400 kts 187°
2026-05-05 16:35 13.70717 121.05545 19082 ft 402 kts 187°
2026-05-05 16:35 13.67958 121.05224 19435 ft 404 kts 187°
2026-05-05 16:35 13.65175 121.04901 19781 ft 406 kts 187°
2026-05-05 16:36 13.62378 121.04575 20121 ft 408 kts 187°
2026-05-05 16:36 13.59563 121.04249 20459 ft 410 kts 186°
2026-05-05 16:36 13.56720 121.03919 20796 ft 411 kts 186°
2026-05-05 16:36 13.53875 121.03588 21123 ft 413 kts 186°
2026-05-05 16:37 13.51033 121.03309 21435 ft 415 kts 184°
2026-05-05 16:37 13.48171 121.03200 21746 ft 416 kts 180°
2026-05-05 16:37 13.45255 121.03216 22058 ft 418 kts 179°
2026-05-05 16:37 13.42359 121.03251 22352 ft 420 kts 179°
2026-05-05 16:38 13.39445 121.03287 22643 ft 421 kts 179°
2026-05-05 16:38 13.36512 121.03320 22932 ft 423 kts 179°
2026-05-05 16:38 13.33571 121.03352 23215 ft 424 kts 179°
2026-05-05 16:38 13.30649 121.03381 23491 ft 426 kts 179°
2026-05-05 16:39 13.27679 121.03410 23756 ft 427 kts 179°
2026-05-05 16:39 13.24707 121.03439 24025 ft 429 kts 179°
2026-05-05 16:39 13.21760 121.03470 24283 ft 430 kts 179°
2026-05-05 16:39 13.18765 121.03501 24536 ft 431 kts 179°
2026-05-05 16:40 13.15757 121.03532 24792 ft 432 kts 179°
2026-05-05 16:40 13.12778 121.03563 25031 ft 434 kts 179°
2026-05-05 16:40 13.09750 121.03594 25265 ft 435 kts 179°
2026-05-05 16:40 13.06733 121.03629 25468 ft 437 kts 179°
2026-05-05 16:41 13.03684 121.03663 25670 ft 439 kts 180°
2026-05-05 16:41 13.00624 121.03696 25912 ft 440 kts 180°
2026-05-05 16:41 12.97562 121.03727 26195 ft 439 kts 181°
2026-05-05 16:41 12.94496 121.03756 26511 ft 438 kts 181°
2026-05-05 16:42 12.91492 121.03783 26775 ft 438 kts 181°
2026-05-05 16:42 12.88454 121.03809 26972 ft 439 kts 181°
2026-05-05 16:42 12.85388 121.03838 27152 ft 440 kts 181°
2026-05-05 16:42 12.82329 121.03866 27391 ft 440 kts 181°
2026-05-05 16:43 12.79294 121.03895 27653 ft 439 kts 181°
2026-05-05 16:43 12.76261 121.03925 27849 ft 440 kts 181°
2026-05-05 16:43 12.73185 121.03954 28026 ft 442 kts 181°
2026-05-05 16:43 12.70107 121.03985 28202 ft 443 kts 181°
2026-05-05 16:44 12.67009 121.04015 28382 ft 444 kts 181°
2026-05-05 16:44 12.63950 121.04044 28556 ft 446 kts 181°
2026-05-05 16:44 12.60827 121.04075 28729 ft 447 kts 181°
2026-05-05 16:44 12.57725 121.04105 28915 ft 447 kts 181°
2026-05-05 16:45 12.54630 121.04135 29152 ft 447 kts 181°
2026-05-05 16:45 12.51500 121.04166 29403 ft 446 kts 181°
2026-05-05 16:45 12.48394 121.04195 29642 ft 445 kts 181°
2026-05-05 16:45 12.45305 121.04225 29863 ft 445 kts 181°
2026-05-05 16:46 12.42209 121.04255 30081 ft 445 kts 181°
2026-05-05 16:46 12.39143 121.04309 30296 ft 445 kts 179°
2026-05-05 16:46 12.36051 121.04517 30510 ft 445 kts 176°
2026-05-05 16:46 12.32971 121.04909 30725 ft 445 kts 172°
2026-05-05 16:47 12.29911 121.05459 30946 ft 445 kts 171°
2026-05-05 16:47 12.26890 121.06034 31168 ft 444 kts 171°
2026-05-05 16:47 12.23879 121.06611 31360 ft 444 kts 171°
2026-05-05 16:47 12.20821 121.07195 31534 ft 445 kts 171°
2026-05-05 16:48 12.17776 121.07774 31707 ft 445 kts 171°
2026-05-05 16:48 12.14749 121.08350 31880 ft 445 kts 171°
2026-05-05 16:48 12.11679 121.08932 32048 ft 446 kts 171°
2026-05-05 16:48 12.08654 121.09504 32209 ft 446 kts 171°
2026-05-05 16:49 12.05589 121.10084 32372 ft 446 kts 171°
2026-05-05 16:49 12.02578 121.10653 32527 ft 446 kts 171°
2026-05-05 16:49 11.99518 121.11231 32682 ft 447 kts 171°
2026-05-05 16:49 11.96455 121.11809 32836 ft 447 kts 171°
2026-05-05 16:50 11.90335 121.12965 32919 ft 448 kts 171°
2026-05-05 16:50 11.84222 121.14119 32922 ft 447 kts 171°
2026-05-05 16:51 11.78133 121.15267 32922 ft 446 kts 170°
2026-05-05 16:51 11.72047 121.16415 32922 ft 446 kts 170°
2026-05-05 16:52 11.65931 121.17568 32922 ft 446 kts 170°
2026-05-05 16:52 11.59867 121.18710 32922 ft 446 kts 170°
2026-05-05 16:53 11.53763 121.19860 32922 ft 446 kts 170°
2026-05-05 16:53 11.47672 121.21008 32921 ft 446 kts 170°
2026-05-05 16:54 11.41550 121.22160 32916 ft 446 kts 170°
2026-05-05 16:54 11.35498 121.23298 32909 ft 446 kts 170°
2026-05-05 16:55 11.29376 121.24449 32901 ft 446 kts 170°
2026-05-05 16:55 11.23289 121.25592 32897 ft 446 kts 170°
2026-05-05 16:56 11.17195 121.26736 32896 ft 446 kts 170°
2026-05-05 16:56 11.11082 121.27883 32896 ft 446 kts 170°
2026-05-05 16:57 11.05024 121.29018 32896 ft 446 kts 170°
2026-05-05 16:57 10.98912 121.30163 32897 ft 444 kts 169°
2026-05-05 16:58 10.92865 121.31315 32895 ft 443 kts 168°
2026-05-05 16:58 10.86750 121.32492 32890 ft 450 kts 168°
2026-05-05 16:59 10.80556 121.33684 32895 ft 456 kts 168°
2026-05-05 16:59 10.74321 121.34875 32896 ft 456 kts 168°
2026-05-05 17:00 10.68111 121.36061 32896 ft 456 kts 168°
2026-05-05 17:00 10.61897 121.37246 32896 ft 457 kts 168°
2026-05-05 17:01 10.55656 121.38435 32896 ft 457 kts 168°
2026-05-05 17:01 10.49375 121.39630 32896 ft 457 kts 168°
2026-05-05 17:02 10.43168 121.40790 32896 ft 457 kts 168°
2026-05-05 17:02 10.36928 121.41953 32896 ft 457 kts 168°
2026-05-05 17:03 10.30647 121.43124 32896 ft 457 kts 168°
2026-05-05 17:03 10.24393 121.44289 32896 ft 457 kts 168°
2026-05-05 17:04 10.18132 121.45455 32896 ft 457 kts 168°
2026-05-05 17:04 10.11894 121.46616 32896 ft 457 kts 168°
2026-05-05 17:05 10.05619 121.47784 32896 ft 457 kts 168°
2026-05-05 17:05 9.99427 121.48935 32896 ft 458 kts 168°
2026-05-05 17:06 9.93187 121.50093 32896 ft 457 kts 168°
2026-05-05 17:06 9.86919 121.51257 32896 ft 458 kts 168°
2026-05-05 17:07 9.80658 121.52422 32896 ft 458 kts 168°
2026-05-05 17:07 9.74400 121.53584 32896 ft 458 kts 168°
2026-05-05 17:08 9.68112 121.54755 32896 ft 458 kts 168°
2026-05-05 17:08 9.61873 121.55917 32896 ft 458 kts 168°
2026-05-05 17:09 9.55631 121.57077 32896 ft 458 kts 168°
2026-05-05 17:09 9.49349 121.58243 32896 ft 458 kts 168°
2026-05-05 17:10 9.43094 121.59403 32896 ft 459 kts 168°
2026-05-05 17:10 9.36873 121.60555 32896 ft 459 kts 168°
2026-05-05 17:11 9.30585 121.61720 32896 ft 459 kts 168°
2026-05-05 17:11 9.24354 121.62875 32896 ft 459 kts 168°
2026-05-05 17:12 9.18089 121.64034 32896 ft 459 kts 168°
2026-05-05 17:12 9.11851 121.65189 32896 ft 459 kts 168°
2026-05-05 17:13 9.05551 121.66357 32896 ft 460 kts 169°
2026-05-05 17:13 8.99314 121.67512 32896 ft 459 kts 169°
2026-05-05 17:14 8.93049 121.68669 32896 ft 458 kts 169°
2026-05-05 17:14 8.86786 121.69823 32896 ft 458 kts 169°
2026-05-05 17:15 8.80568 121.70972 32896 ft 458 kts 169°
2026-05-05 17:15 8.74289 121.72131 32896 ft 458 kts 169°
2026-05-05 17:16 8.68027 121.73286 32896 ft 458 kts 169°
2026-05-05 17:16 8.61765 121.74442 32896 ft 458 kts 169°
2026-05-05 17:17 8.55534 121.75591 32896 ft 458 kts 169°
2026-05-05 17:17 8.49269 121.76746 32896 ft 458 kts 169°
2026-05-05 17:18 8.42996 121.77903 32896 ft 459 kts 169°
2026-05-05 17:18 8.36710 121.79061 32896 ft 459 kts 169°
2026-05-05 17:19 8.30423 121.80219 32895 ft 459 kts 169°
2026-05-05 17:19 8.24152 121.81374 32896 ft 459 kts 169°
2026-05-05 17:20 8.17910 121.82523 32896 ft 459 kts 169°
2026-05-05 17:20 8.11645 121.83676 32896 ft 459 kts 169°
2026-05-05 17:21 8.05365 121.84831 32896 ft 459 kts 169°
2026-05-05 17:22 7.95963 121.86561 32896 ft 459 kts 169°
2026-05-05 17:22 7.89698 121.87712 32896 ft 459 kts 169°
2026-05-05 17:23 7.83462 121.88858 32896 ft 460 kts 169°
2026-05-05 17:23 7.77158 121.90016 32896 ft 460 kts 169°
2026-05-05 17:24 7.70897 121.91166 32896 ft 460 kts 169°
2026-05-05 17:24 7.64632 121.92316 32896 ft 460 kts 169°
2026-05-05 17:25 7.58340 121.93470 32896 ft 460 kts 169°
2026-05-05 17:25 7.52087 121.94617 32896 ft 460 kts 169°
2026-05-05 17:26 7.45819 121.95766 32896 ft 460 kts 169°
2026-05-05 17:26 7.39520 121.96918 32896 ft 460 kts 169°
2026-05-05 17:27 7.33278 121.98062 32896 ft 460 kts 169°
2026-05-05 17:27 7.26999 121.99219 32896 ft 460 kts 169°
2026-05-05 17:28 7.20706 122.00376 32896 ft 460 kts 169°
2026-05-05 17:28 7.14417 122.01530 32896 ft 460 kts 169°
2026-05-05 17:29 7.08173 122.02675 32896 ft 460 kts 169°
2026-05-05 17:29 7.01885 122.03824 32895 ft 460 kts 171°
2026-05-05 17:30 6.95523 122.04279 33020 ft 461 kts 182°
2026-05-05 17:30 6.92372 122.04028 33349 ft 456 kts 188°
2026-05-05 17:30 6.89264 122.03468 33634 ft 453 kts 193°
2026-05-05 17:30 6.86257 122.02612 33826 ft 452 kts 199°
2026-05-05 17:31 6.83333 122.01465 33888 ft 452 kts 204°
2026-05-05 17:31 6.77632 121.98861 33895 ft 452 kts 205°
2026-05-05 17:32 6.71925 121.96232 33896 ft 452 kts 205°
2026-05-05 17:32 6.66244 121.93640 33896 ft 452 kts 204°
2026-05-05 17:33 6.60514 121.91036 33896 ft 452 kts 204°
2026-05-05 17:33 6.54803 121.88443 33895 ft 452 kts 204°
2026-05-05 17:34 6.49094 121.85856 33893 ft 452 kts 204°
2026-05-05 17:34 6.43416 121.83282 33890 ft 452 kts 204°
2026-05-05 17:35 6.37709 121.80694 33887 ft 451 kts 204°
2026-05-05 17:35 6.31972 121.78092 33884 ft 451 kts 204°
2026-05-05 17:36 6.26269 121.75507 33881 ft 452 kts 204°
2026-05-05 17:36 6.20542 121.72910 33878 ft 451 kts 204°
2026-05-05 17:37 6.14860 121.70335 33875 ft 451 kts 204°
2026-05-05 17:37 6.09138 121.67742 33871 ft 451 kts 204°
2026-05-05 17:38 6.03448 121.65165 33869 ft 451 kts 204°
2026-05-05 17:38 5.97739 121.62579 33868 ft 451 kts 204°
2026-05-05 17:39 5.92014 121.59987 33868 ft 451 kts 204°
2026-05-05 17:39 5.86308 121.57404 33868 ft 451 kts 204°
2026-05-05 17:40 5.80590 121.54816 33868 ft 451 kts 204°
2026-05-05 17:40 5.74904 121.52244 33868 ft 451 kts 204°
2026-05-05 17:41 5.69179 121.49654 33868 ft 451 kts 204°
2026-05-05 17:41 5.63465 121.47070 33868 ft 451 kts 204°
2026-05-05 17:42 5.57742 121.44481 33868 ft 451 kts 204°
2026-05-05 17:42 5.52037 121.41901 33868 ft 452 kts 204°
2026-05-05 17:43 5.46326 121.39320 33868 ft 452 kts 204°
2026-05-05 17:43 5.40633 121.36748 33868 ft 452 kts 204°
2026-05-05 17:44 5.34888 121.34152 33868 ft 452 kts 204°
2026-05-05 17:44 5.29156 121.31563 33868 ft 452 kts 204°
2026-05-05 17:45 5.23440 121.28981 33869 ft 452 kts 204°
2026-05-05 17:45 5.17723 121.26400 33879 ft 452 kts 204°
2026-05-05 17:46 5.11989 121.23811 33894 ft 452 kts 204°
2026-05-05 17:46 5.06298 121.21240 33908 ft 453 kts 204°
2026-05-05 17:47 5.00541 121.18639 33917 ft 455 kts 204°
2026-05-05 17:47 4.94794 121.16043 33920 ft 454 kts 203°
2026-05-05 17:48 4.89051 121.13456 33921 ft 455 kts 203°
2026-05-05 17:48 4.83276 121.10854 33921 ft 455 kts 203°
2026-05-05 17:49 4.77519 121.08259 33921 ft 456 kts 203°
2026-05-05 17:49 4.71758 121.05662 33921 ft 456 kts 203°
2026-05-05 17:50 4.65951 121.03044 33921 ft 457 kts 203°
2026-05-05 17:50 4.60163 121.00436 33921 ft 458 kts 203°
2026-05-05 17:51 4.54391 120.97834 33921 ft 458 kts 203°
2026-05-05 17:51 4.48569 120.95211 33921 ft 459 kts 203°
2026-05-05 17:52 4.42746 120.92588 33921 ft 459 kts 203°
2026-05-05 17:52 4.36949 120.89977 33921 ft 459 kts 203°
2026-05-05 17:53 4.31134 120.87358 33921 ft 459 kts 203°
2026-05-05 17:53 4.25325 120.84742 33921 ft 460 kts 203°
2026-05-05 17:54 4.19522 120.82130 33921 ft 460 kts 203°
2026-05-05 17:54 4.13676 120.79497 33921 ft 460 kts 203°
2026-05-05 17:55 4.07873 120.76884 33921 ft 460 kts 203°
2026-05-05 17:55 4.02034 120.74273 33920 ft 460 kts 201°
2026-05-05 17:56 3.96020 120.72100 33921 ft 459 kts 196°
2026-05-05 17:56 3.89965 120.70236 33921 ft 459 kts 195°
2026-05-05 17:57 3.83867 120.68366 33921 ft 459 kts 195°
2026-05-05 17:57 3.77792 120.66497 33921 ft 459 kts 195°
2026-05-05 17:58 3.71686 120.64616 33921 ft 459 kts 196°
2026-05-05 17:58 3.65553 120.62723 33921 ft 459 kts 196°
2026-05-05 17:59 3.59440 120.60838 33921 ft 459 kts 196°
2026-05-05 17:59 3.53323 120.58952 33921 ft 460 kts 196°
2026-05-05 18:00 3.47234 120.57075 33921 ft 460 kts 196°
2026-05-05 18:00 3.41139 120.55195 33921 ft 460 kts 196°
2026-05-05 18:01 3.35015 120.53307 33921 ft 460 kts 196°
2026-05-05 18:01 3.28931 120.51432 33921 ft 460 kts 196°
2026-05-05 18:02 3.22830 120.49551 33919 ft 460 kts 196°
2026-05-05 18:02 3.16745 120.47677 33903 ft 460 kts 196°
2026-05-05 18:03 3.10642 120.45796 33891 ft 460 kts 196°
2026-05-05 18:03 3.04519 120.43909 33885 ft 461 kts 196°
2026-05-05 18:04 2.98392 120.42022 33882 ft 462 kts 195°
2026-05-05 18:04 2.92233 120.40125 33881 ft 464 kts 195°
2026-05-05 18:05 2.86043 120.38219 33881 ft 466 kts 195°
2026-05-05 18:05 2.79851 120.36313 33882 ft 466 kts 195°
2026-05-05 18:06 2.73672 120.34411 33881 ft 466 kts 195°
2026-05-05 18:06 2.67477 120.32503 33882 ft 466 kts 195°
2026-05-05 18:07 2.61287 120.30598 33882 ft 466 kts 195°
2026-05-05 18:07 2.55088 120.28690 33882 ft 466 kts 195°
2026-05-05 18:08 2.48909 120.26788 33882 ft 467 kts 195°
2026-05-05 18:08 2.42704 120.24879 33882 ft 467 kts 195°
2026-05-05 18:09 2.36470 120.22961 33882 ft 467 kts 195°
2026-05-05 18:09 2.30296 120.21061 33882 ft 467 kts 195°
2026-05-05 18:10 2.24095 120.19154 33882 ft 467 kts 195°
2026-05-05 18:10 2.17882 120.17242 33882 ft 467 kts 195°
2026-05-05 18:11 2.11680 120.15334 33882 ft 467 kts 195°
2026-05-05 18:11 2.05501 120.13435 33882 ft 467 kts 195°
2026-05-05 18:12 1.99318 120.11533 33882 ft 467 kts 195°
2026-05-05 18:12 1.93102 120.09621 33882 ft 467 kts 195°
2026-05-05 18:13 1.86866 120.07704 33882 ft 468 kts 195°
2026-05-05 18:13 1.80696 120.05807 33882 ft 468 kts 195°
2026-05-05 18:14 1.74495 120.03900 33882 ft 468 kts 195°
2026-05-05 18:14 1.68277 120.01988 33882 ft 468 kts 195°
2026-05-05 18:15 1.62094 120.00088 33882 ft 468 kts 195°
2026-05-05 18:15 1.55913 119.98188 33882 ft 468 kts 195°
2026-05-05 18:16 1.49719 119.96284 33882 ft 468 kts 195°
2026-05-05 18:16 1.43479 119.94366 33882 ft 468 kts 195°
2026-05-05 18:17 1.37294 119.92465 33882 ft 468 kts 195°
2026-05-05 18:17 1.31062 119.90550 33877 ft 468 kts 195°
2026-05-05 18:18 1.24881 119.88650 33871 ft 468 kts 195°
2026-05-05 18:18 1.18670 119.86742 33869 ft 468 kts 195°
2026-05-05 18:19 1.12496 119.84845 33868 ft 468 kts 195°
2026-05-05 18:19 1.06283 119.82935 33868 ft 468 kts 195°
2026-05-05 18:20 1.00090 119.81030 33868 ft 469 kts 195°
2026-05-05 18:20 0.93854 119.79114 33868 ft 469 kts 195°
2026-05-05 18:21 0.87658 119.77212 33868 ft 469 kts 195°
2026-05-05 18:21 0.81402 119.75291 33868 ft 469 kts 195°
2026-05-05 18:22 0.75154 119.73372 33868 ft 469 kts 195°
2026-05-05 18:22 0.68886 119.71446 33868 ft 469 kts 195°
2026-05-05 18:23 0.62653 119.69531 33868 ft 469 kts 195°
2026-05-05 18:23 0.56402 119.67611 33868 ft 469 kts 195°
2026-05-05 18:24 0.50176 119.65698 33868 ft 469 kts 195°
2026-05-05 18:24 0.43935 119.63781 33868 ft 469 kts 195°
2026-05-05 18:25 0.37721 119.61872 33868 ft 469 kts 195°
2026-05-05 18:25 0.31491 119.59958 33868 ft 469 kts 195°
2026-05-05 18:26 0.25211 119.58028 33868 ft 469 kts 195°
2026-05-05 18:26 0.19042 119.56132 33868 ft 469 kts 195°
2026-05-05 18:27 0.12767 119.54203 33868 ft 469 kts 195°
2026-05-05 18:27 0.06552 119.52292 33868 ft 469 kts 195°
2026-05-05 18:28 -0.02766 119.49477 33868 ft 469 kts 194°
2026-05-05 18:28 -0.09040 119.47626 33868 ft 469 kts 194°
2026-05-05 18:29 -0.15281 119.45779 33868 ft 469 kts 194°
2026-05-05 18:29 -0.21521 119.43928 33868 ft 469 kts 194°
2026-05-05 18:30 -0.27752 119.42079 33868 ft 469 kts 194°
2026-05-05 18:30 -0.34018 119.40219 33868 ft 469 kts 194°
2026-05-05 18:31 -0.40288 119.38357 33868 ft 469 kts 194°
2026-05-05 18:31 -0.46525 119.36506 33868 ft 469 kts 194°
2026-05-05 18:32 -0.52784 119.34647 33867 ft 469 kts 194°
2026-05-05 18:32 -0.59031 119.32793 33868 ft 469 kts 194°
2026-05-05 18:33 -0.65274 119.30939 33868 ft 469 kts 194°
2026-05-05 18:33 -0.71508 119.29088 33868 ft 469 kts 194°
2026-05-05 18:34 -0.77756 119.27232 33868 ft 469 kts 194°
2026-05-05 18:34 -0.84004 119.25377 33868 ft 469 kts 194°
2026-05-05 18:35 -0.90257 119.23521 33868 ft 469 kts 194°
2026-05-05 18:35 -0.96493 119.21669 33868 ft 469 kts 194°
2026-05-05 18:36 -1.02752 119.19810 33870 ft 465 kts 194°
2026-05-05 18:36 -1.08894 119.17988 33870 ft 460 kts 195°
2026-05-05 18:37 -1.15032 119.16166 33869 ft 457 kts 195°
2026-05-05 18:37 -1.21141 119.14349 33868 ft 457 kts 195°
2026-05-05 18:38 -1.27230 119.12540 33868 ft 457 kts 195°
2026-05-05 18:38 -1.33296 119.10738 33868 ft 457 kts 195°
2026-05-05 18:39 -1.39379 119.08930 33868 ft 457 kts 195°
2026-05-05 18:39 -1.45459 119.07124 33868 ft 457 kts 195°
2026-05-05 18:40 -1.51579 119.05306 33868 ft 457 kts 195°
2026-05-05 18:40 -1.57679 119.03494 33868 ft 457 kts 195°
2026-05-05 18:41 -1.63750 119.01689 33868 ft 457 kts 195°
2026-05-05 18:41 -1.69850 118.99876 33868 ft 457 kts 195°
2026-05-05 18:42 -1.75918 118.98072 33868 ft 457 kts 195°
2026-05-05 18:42 -1.81987 118.96268 33868 ft 456 kts 195°
2026-05-05 18:43 -1.88076 118.94459 33868 ft 456 kts 194°
2026-05-05 18:43 -1.94165 118.92648 33868 ft 456 kts 194°
2026-05-05 18:44 -2.00226 118.90847 33868 ft 456 kts 194°
2026-05-05 18:44 -2.06343 118.89029 33868 ft 456 kts 194°
2026-05-05 18:45 -2.12399 118.87228 33868 ft 456 kts 194°
2026-05-05 18:45 -2.18478 118.85420 33868 ft 455 kts 194°
2026-05-05 18:46 -2.24563 118.83611 33868 ft 455 kts 194°
2026-05-05 18:46 -2.30616 118.81810 33868 ft 455 kts 194°
2026-05-05 18:47 -2.36665 118.80010 33868 ft 455 kts 194°
2026-05-05 18:47 -2.42707 118.78213 33868 ft 454 kts 194°
2026-05-05 18:48 -2.48792 118.76402 33868 ft 455 kts 194°
2026-05-05 18:48 -2.54836 118.74602 33868 ft 455 kts 194°
2026-05-05 18:49 -2.60925 118.72788 33868 ft 455 kts 194°
2026-05-05 18:49 -2.67021 118.71233 33868 ft 453 kts 188°
2026-05-05 18:50 -2.73238 118.70298 33868 ft 451 kts 185°
2026-05-05 18:50 -2.79453 118.69515 33868 ft 451 kts 185°
2026-05-05 18:51 -2.85672 118.68729 33868 ft 451 kts 185°
2026-05-05 18:51 -2.91926 118.67934 33867 ft 452 kts 185°
2026-05-05 18:52 -2.98193 118.67139 33867 ft 454 kts 185°
2026-05-05 18:52 -3.04473 118.66338 33867 ft 455 kts 185°
2026-05-05 18:53 -3.10753 118.65534 33868 ft 456 kts 186°
2026-05-05 18:53 -3.17003 118.64735 33868 ft 456 kts 186°
2026-05-05 18:54 -3.23253 118.63935 33868 ft 456 kts 185°
2026-05-05 18:54 -3.29565 118.63129 33868 ft 456 kts 185°
2026-05-05 18:55 -3.35822 118.62330 33868 ft 456 kts 186°
2026-05-05 18:55 -3.42088 118.61529 33868 ft 456 kts 185°
2026-05-05 18:56 -3.48321 118.60731 33868 ft 456 kts 186°
2026-05-05 18:56 -3.54594 118.59930 33868 ft 456 kts 185°
2026-05-05 18:57 -3.60866 118.59129 33868 ft 456 kts 186°
2026-05-05 18:57 -3.67123 118.58328 33868 ft 456 kts 185°
2026-05-05 18:58 -3.73393 118.57526 33868 ft 456 kts 185°
2026-05-05 18:58 -3.79653 118.56725 33868 ft 456 kts 186°
2026-05-05 18:59 -3.85950 118.55920 33868 ft 456 kts 186°
2026-05-05 18:59 -3.92204 118.55119 33868 ft 456 kts 185°
2026-05-05 19:00 -3.98445 118.54321 33868 ft 456 kts 186°
2026-05-05 19:00 -4.04707 118.53519 33868 ft 456 kts 185°
2026-05-05 19:01 -4.11016 118.52712 33868 ft 456 kts 186°
2026-05-05 19:01 -4.17282 118.51910 33868 ft 456 kts 185°
2026-05-05 19:02 -4.23528 118.51111 33868 ft 456 kts 186°
2026-05-05 19:02 -4.29803 118.50307 33868 ft 456 kts 185°
2026-05-05 19:03 -4.36088 118.49503 33890 ft 456 kts 186°
2026-05-05 19:03 -4.42324 118.48704 33935 ft 456 kts 185°
2026-05-05 19:04 -4.48541 118.47907 33959 ft 456 kts 185°
2026-05-05 19:04 -4.54822 118.47102 33970 ft 456 kts 186°
2026-05-05 19:05 -4.61065 118.46301 33974 ft 456 kts 186°
2026-05-05 19:05 -4.67372 118.45493 33975 ft 456 kts 186°
2026-05-05 19:06 -4.73603 118.44693 33976 ft 456 kts 185°
2026-05-05 19:06 -4.79859 118.43891 33976 ft 456 kts 185°
2026-05-05 19:07 -4.86129 118.43086 33976 ft 456 kts 185°
2026-05-05 19:07 -4.92417 118.42281 33976 ft 456 kts 186°
2026-05-05 19:08 -4.98689 118.41475 33976 ft 456 kts 185°
2026-05-05 19:08 -5.04926 118.40672 33976 ft 456 kts 185°
2026-05-05 19:09 -5.11172 118.39868 33976 ft 455 kts 185°
2026-05-05 19:09 -5.17431 118.39066 33976 ft 455 kts 185°
2026-05-05 19:10 -5.23704 118.38263 33976 ft 455 kts 185°
2026-05-05 19:10 -5.29939 118.37463 33976 ft 455 kts 185°
2026-05-05 19:11 -5.36201 118.36659 33976 ft 455 kts 185°
2026-05-05 19:11 -5.42444 118.35857 33976 ft 455 kts 185°
2026-05-05 19:12 -5.48699 118.35053 33976 ft 455 kts 185°
2026-05-05 19:12 -5.54943 118.34250 33975 ft 455 kts 185°
2026-05-05 19:13 -5.61210 118.33444 33976 ft 455 kts 185°
2026-05-05 19:13 -5.67471 118.32639 33976 ft 455 kts 185°
2026-05-05 19:14 -5.73714 118.31835 33976 ft 455 kts 185°
2026-05-05 19:14 -5.79898 118.31039 33976 ft 455 kts 185°
2026-05-05 19:15 -5.86160 118.30234 33976 ft 455 kts 185°
2026-05-05 19:15 -5.92442 118.29424 33976 ft 455 kts 185°
2026-05-05 19:16 -5.98696 118.28619 33976 ft 455 kts 185°
2026-05-05 19:16 -6.04949 118.27813 33976 ft 455 kts 185°
2026-05-05 19:17 -6.11185 118.27008 33976 ft 455 kts 185°
2026-05-05 19:17 -6.17455 118.26197 33976 ft 455 kts 185°
2026-05-05 19:18 -6.23691 118.25394 33972 ft 455 kts 184°
2026-05-05 19:18 -6.29979 118.24965 33934 ft 453 kts 179°
2026-05-05 19:19 -6.36236 118.24885 33910 ft 453 kts 178°
2026-05-05 19:19 -6.42532 118.24818 33901 ft 453 kts 178°
2026-05-05 19:20 -6.48801 118.24744 33897 ft 453 kts 178°
2026-05-05 19:20 -6.55062 118.24670 33896 ft 453 kts 178°
2026-05-05 19:21 -6.61355 118.24593 33896 ft 453 kts 178°
2026-05-05 19:21 -6.67647 118.24515 33896 ft 453 kts 178°
2026-05-05 19:22 -6.73919 118.24438 33896 ft 453 kts 178°
2026-05-05 19:22 -6.80181 118.24361 34120 ft 454 kts 178°
2026-05-05 19:23 -6.83342 118.24322 34356 ft 453 kts 178°
2026-05-05 19:23 -6.86486 118.24283 34570 ft 451 kts 178°
2026-05-05 19:23 -6.89635 118.24245 34760 ft 451 kts 178°
2026-05-05 19:23 -6.92766 118.24208 34886 ft 451 kts 179°
2026-05-05 19:24 -6.99061 118.24135 34894 ft 451 kts 179°
2026-05-05 19:24 -7.05345 118.24059 34896 ft 452 kts 180°
2026-05-05 19:25 -7.11628 118.23978 34897 ft 452 kts 180°
2026-05-05 19:25 -7.17884 118.23898 34897 ft 452 kts 180°
2026-05-05 19:26 -7.24206 118.23818 34897 ft 452 kts 180°
2026-05-05 19:26 -7.30506 118.23740 34897 ft 452 kts 180°
2026-05-05 19:27 -7.36764 118.23663 34897 ft 452 kts 180°
2026-05-05 19:27 -7.43015 118.23586 34897 ft 452 kts 180°
2026-05-05 19:28 -7.49324 118.23508 34897 ft 452 kts 180°
2026-05-05 19:28 -7.55594 118.23430 34897 ft 452 kts 180°
2026-05-05 19:29 -7.61898 118.23352 34897 ft 452 kts 180°
2026-05-05 19:29 -7.68137 118.23275 34897 ft 452 kts 180°
2026-05-05 19:30 -7.74432 118.23197 34897 ft 452 kts 180°
2026-05-05 19:30 -7.80717 118.23119 34897 ft 452 kts 180°
2026-05-05 19:31 -7.86985 118.23042 34897 ft 452 kts 180°
2026-05-05 19:31 -7.93265 118.22965 34897 ft 452 kts 180°
2026-05-05 19:32 -7.99513 118.22887 34897 ft 452 kts 180°
2026-05-05 19:32 -8.05808 118.22809 34897 ft 452 kts 180°
2026-05-05 19:33 -8.12106 118.22731 34897 ft 452 kts 180°
2026-05-05 19:33 -8.18383 118.22653 34897 ft 452 kts 180°
2026-05-05 19:34 -8.24661 118.22575 34897 ft 452 kts 180°
2026-05-05 19:35 -8.34097 118.22458 34897 ft 452 kts 180°
2026-05-05 19:35 -8.40352 118.22380 34897 ft 452 kts 180°
2026-05-05 19:36 -8.46606 118.22302 34897 ft 452 kts 180°
2026-05-05 19:36 -8.52910 118.22224 34897 ft 452 kts 180°
2026-05-05 19:37 -8.59162 118.22147 34897 ft 452 kts 180°
2026-05-05 19:37 -8.65479 118.22068 34897 ft 452 kts 180°
2026-05-05 19:38 -8.71742 118.21989 34897 ft 452 kts 180°
2026-05-05 19:38 -8.78013 118.21912 34897 ft 452 kts 180°
2026-05-05 19:39 -8.84278 118.21833 34897 ft 452 kts 180°
2026-05-05 19:39 -8.90606 118.21755 34897 ft 452 kts 180°
2026-05-05 19:40 -8.96887 118.21676 34897 ft 452 kts 180°
2026-05-05 19:40 -9.03164 118.21596 34897 ft 452 kts 180°
2026-05-05 19:41 -9.09408 118.21516 34897 ft 452 kts 179°
2026-05-05 19:41 -9.15679 118.21437 34897 ft 452 kts 179°
2026-05-05 19:42 -9.21963 118.21358 34897 ft 452 kts 179°
2026-05-05 19:42 -9.28186 118.21279 34897 ft 452 kts 179°
2026-05-05 19:43 -9.34481 118.21251 34897 ft 452 kts 178°
2026-05-05 19:43 -9.40793 118.21274 34897 ft 452 kts 178°
2026-05-05 19:44 -9.47059 118.21291 34897 ft 452 kts 178°
2026-05-05 19:44 -9.53345 118.21305 34897 ft 452 kts 179°
2026-05-05 19:45 -9.59619 118.21317 34897 ft 452 kts 179°
2026-05-05 19:45 -9.65883 118.21326 34897 ft 452 kts 179°
2026-05-05 19:46 -9.72131 118.21336 34897 ft 452 kts 179°
2026-05-05 19:46 -9.78431 118.21347 34897 ft 452 kts 179°
2026-05-05 19:47 -9.84696 118.21356 34897 ft 452 kts 179°
2026-05-05 19:47 -9.90968 118.21366 34897 ft 452 kts 179°
2026-05-05 19:48 -9.97245 118.21376 34897 ft 452 kts 179°
2026-05-05 19:48 -10.03551 118.21386 34897 ft 452 kts 179°
2026-05-05 19:49 -10.09816 118.21395 34897 ft 452 kts 179°
2026-05-05 19:49 -10.16108 118.21405 34897 ft 452 kts 179°
2026-05-05 19:50 -10.22379 118.21414 34897 ft 452 kts 179°
2026-05-05 19:50 -10.28725 118.21424 34897 ft 452 kts 179°
2026-05-05 19:51 -10.34968 118.21434 34897 ft 452 kts 179°
2026-05-05 19:51 -10.41295 118.21444 34897 ft 452 kts 179°
2026-05-05 19:52 -10.47557 118.21453 34897 ft 452 kts 179°
2026-05-05 19:52 -10.53851 118.21463 34897 ft 452 kts 179°
2026-05-05 19:53 -10.60118 118.21473 34897 ft 452 kts 179°
2026-05-05 19:53 -10.66405 118.21483 34897 ft 452 kts 179°
2026-05-05 19:54 -10.72668 118.21492 34897 ft 452 kts 179°
2026-05-05 19:54 -10.78926 118.21502 34897 ft 452 kts 179°
2026-05-05 19:55 -10.85241 118.21513 35088 ft 453 kts 179°
2026-05-05 19:55 -10.88351 118.21517 35311 ft 451 kts 179°
2026-05-05 19:55 -10.91503 118.21523 35490 ft 451 kts 179°
2026-05-05 19:56 -10.97819 118.21538 35661 ft 455 kts 180°
2026-05-05 19:56 -11.00977 118.21545 35800 ft 455 kts 180°
2026-05-05 19:56 -11.04098 118.21551 35889 ft 454 kts 180°
2026-05-05 19:57 -11.10415 118.21557 35895 ft 452 kts 180°
2026-05-05 19:57 -11.16676 118.21564 35897 ft 451 kts 180°
2026-05-05 19:58 -11.22967 118.21571 35897 ft 451 kts 180°
2026-05-05 19:58 -11.29240 118.21581 35897 ft 452 kts 180°
2026-05-05 19:59 -11.35503 118.21590 35897 ft 451 kts 180°
2026-05-05 19:59 -11.41774 118.21600 35897 ft 451 kts 180°
2026-05-05 20:00 -11.48026 118.21609 35897 ft 451 kts 180°
2026-05-05 20:00 -11.54283 118.21619 35897 ft 451 kts 180°
2026-05-05 20:01 -11.60581 118.21628 35897 ft 451 kts 180°
2026-05-05 20:01 -11.66878 118.21638 35897 ft 452 kts 180°
2026-05-05 20:02 -11.73138 118.21648 35897 ft 452 kts 180°
2026-05-05 20:02 -11.79401 118.21657 35897 ft 452 kts 180°
2026-05-05 20:03 -11.85672 118.21660 35897 ft 451 kts 180°
2026-05-05 20:03 -11.91896 118.21661 35897 ft 451 kts 180°
2026-05-05 20:04 -11.98186 118.21670 35893 ft 451 kts 180°
2026-05-05 20:04 -12.04449 118.21378 35881 ft 451 kts 184°
2026-05-05 20:05 -12.10681 118.20931 35873 ft 451 kts 184°
2026-05-05 20:05 -12.16940 118.20478 35870 ft 452 kts 184°
2026-05-05 20:06 -12.23223 118.20026 35869 ft 452 kts 184°
2026-05-05 20:06 -12.29472 118.19579 35869 ft 451 kts 184°
2026-05-05 20:07 -12.35697 118.19133 35869 ft 452 kts 184°
2026-05-05 20:07 -12.41951 118.18685 35869 ft 452 kts 184°
2026-05-05 20:08 -12.48202 118.18237 35869 ft 451 kts 184°
2026-05-05 20:08 -12.54474 118.17788 35869 ft 452 kts 184°
2026-05-05 20:09 -12.60744 118.17339 35869 ft 452 kts 184°
2026-05-05 20:09 -12.67021 118.16888 35869 ft 451 kts 184°
2026-05-05 20:10 -12.73251 118.16442 35869 ft 451 kts 184°
2026-05-05 20:10 -12.79485 118.15995 35869 ft 451 kts 184°
2026-05-05 20:11 -12.85754 118.15545 35869 ft 451 kts 184°
2026-05-05 20:11 -12.91992 118.15096 35868 ft 451 kts 184°
2026-05-05 20:12 -12.98281 118.14645 35868 ft 452 kts 184°
2026-05-05 20:12 -13.04496 118.14201 35868 ft 453 kts 185°
2026-05-05 20:13 -13.10781 118.13752 35869 ft 453 kts 185°
2026-05-05 20:13 -13.17089 118.13296 35869 ft 453 kts 185°
2026-05-05 20:14 -13.23334 118.12843 35869 ft 453 kts 185°
2026-05-05 20:14 -13.29592 118.12391 35869 ft 453 kts 185°
2026-05-05 20:15 -13.35884 118.11937 35869 ft 453 kts 185°
2026-05-05 20:15 -13.42122 118.11487 35869 ft 453 kts 185°
2026-05-05 20:16 -13.48384 118.11035 35869 ft 453 kts 185°
2026-05-05 20:16 -13.54671 118.10580 35869 ft 453 kts 185°
2026-05-05 20:17 -13.60938 118.10128 35869 ft 453 kts 185°
2026-05-05 20:17 -13.67265 118.09670 35869 ft 453 kts 185°
2026-05-05 20:18 -13.73541 118.09217 35869 ft 453 kts 185°
2026-05-05 20:18 -13.79826 118.08762 35869 ft 453 kts 185°
2026-05-05 20:19 -13.86113 118.08307 35869 ft 453 kts 185°
2026-05-05 20:19 -13.92425 118.07850 35898 ft 453 kts 185°
2026-05-05 20:20 -13.98705 118.07394 35927 ft 453 kts 185°
2026-05-05 20:20 -14.05010 118.06937 35941 ft 453 kts 185°
2026-05-05 20:21 -14.11257 118.06484 35947 ft 453 kts 185°
2026-05-05 20:21 -14.17560 118.06027 35950 ft 453 kts 185°
2026-05-05 20:22 -14.23845 118.05570 35950 ft 453 kts 185°
2026-05-05 20:22 -14.30109 118.05114 35950 ft 452 kts 185°
2026-05-05 20:23 -14.36428 118.04654 35950 ft 452 kts 185°
2026-05-05 20:23 -14.42667 118.04200 35950 ft 452 kts 185°
2026-05-05 20:24 -14.48971 118.03741 35950 ft 452 kts 185°
2026-05-05 20:24 -14.55266 118.03282 35950 ft 452 kts 185°
2026-05-05 20:25 -14.61563 118.02823 35950 ft 452 kts 185°
2026-05-05 20:25 -14.67843 118.02364 35950 ft 452 kts 185°
2026-05-05 20:26 -14.74156 118.01903 35950 ft 452 kts 185°
2026-05-05 20:26 -14.80454 118.01441 35950 ft 452 kts 185°
2026-05-05 20:27 -14.86711 118.00983 35950 ft 452 kts 185°
2026-05-05 20:27 -14.92992 118.00523 35950 ft 452 kts 185°
2026-05-05 20:28 -14.99267 118.00062 35950 ft 451 kts 186°
2026-05-05 20:28 -15.05572 117.99393 35951 ft 450 kts 188°
2026-05-05 20:29 -15.11772 117.98679 35950 ft 450 kts 188°
2026-05-05 20:29 -15.18017 117.97961 35950 ft 450 kts 188°
2026-05-05 20:30 -15.24234 117.97249 35951 ft 450 kts 188°
2026-05-05 20:30 -15.30485 117.96532 35959 ft 450 kts 188°
2026-05-05 20:31 -15.36681 117.95823 35974 ft 450 kts 188°
2026-05-05 20:31 -15.42906 117.95110 35991 ft 450 kts 188°
2026-05-05 20:32 -15.49159 117.94392 36002 ft 450 kts 188°
2026-05-05 20:32 -15.55320 117.93686 36008 ft 450 kts 188°
2026-05-05 20:33 -15.61512 117.92975 36013 ft 449 kts 188°
2026-05-05 20:33 -15.67756 117.92258 36017 ft 449 kts 188°
2026-05-05 20:34 -15.73985 117.91542 36022 ft 449 kts 188°
2026-05-05 20:34 -15.80190 117.90828 36032 ft 449 kts 188°
2026-05-05 20:35 -15.86409 117.90112 36044 ft 449 kts 188°
2026-05-05 20:35 -15.92623 117.89397 36053 ft 449 kts 188°
2026-05-05 20:36 -15.98810 117.88684 36057 ft 449 kts 188°
2026-05-05 20:36 -16.05005 117.87969 36059 ft 449 kts 188°
2026-05-05 20:37 -16.11190 117.87256 36059 ft 449 kts 188°
2026-05-05 20:37 -16.17400 117.86540 36059 ft 449 kts 188°
2026-05-05 20:38 -16.23625 117.85820 36060 ft 449 kts 188°
2026-05-05 20:38 -16.29852 117.85100 36060 ft 449 kts 188°
2026-05-05 20:39 -16.36031 117.84386 36060 ft 449 kts 188°
2026-05-05 20:39 -16.42266 117.83664 36060 ft 449 kts 188°
2026-05-05 20:40 -16.48457 117.82947 36060 ft 449 kts 188°
2026-05-05 20:40 -16.54648 117.82230 36060 ft 449 kts 188°
2026-05-05 20:41 -16.60876 117.81507 36060 ft 449 kts 188°
2026-05-05 20:41 -16.67065 117.80788 36059 ft 449 kts 188°
2026-05-05 20:42 -16.73270 117.80067 36060 ft 449 kts 188°
2026-05-05 20:42 -16.79450 117.79349 36060 ft 449 kts 188°
2026-05-05 20:43 -16.85658 117.78627 36060 ft 449 kts 188°
2026-05-05 20:43 -16.91883 117.77902 36060 ft 449 kts 188°
2026-05-05 20:44 -16.97989 117.77191 36060 ft 449 kts 188°
2026-05-05 20:44 -17.04176 117.76475 36060 ft 448 kts 189°
2026-05-05 20:45 -17.13442 117.75392 36060 ft 446 kts 190°
2026-05-05 20:45 -17.19546 117.74689 36060 ft 446 kts 189°
2026-05-05 20:46 -17.25719 117.74016 36060 ft 445 kts 189°
2026-05-05 20:46 -17.31825 117.73349 36059 ft 445 kts 189°
2026-05-05 20:47 -17.37995 117.72672 36060 ft 446 kts 189°
2026-05-05 20:47 -17.44109 117.71999 36059 ft 445 kts 189°
2026-05-05 20:48 -17.50286 117.71318 36060 ft 446 kts 189°